• In Russia
  • List of Countries
  • For 7 days
  • Water Temperature
  • Satellite Maps
  • Weather Map
  • Weather Widgets
  • user-avatar
    Login

    Hourly Weather Andora

    Today, 11 December, Monday

    Time Temperature Precipitation Wind Pressure Humidity
    00:00 +2°C° 0 mm 2 mps 606 mmHg 91%
    01:00 +1°C° 0.7 mm 3 mps 606 mmHg 91%
    02:00 0°C° 0.7 mm 4 mps 605 mmHg 91%
    03:00 0°C° 0.7 mm 5 mps 605 mmHg 92%
    04:00 0°C° 1 mm 5 mps 604 mmHg 92%
    05:00 0°C° 1 mm 4 mps 604 mmHg 92%
    06:00 0°C° 1 mm 4 mps 604 mmHg 92%
    07:00 0°C° 1 mm 4 mps 604 mmHg 93%
    08:00 0°C° 1 mm 4 mps 605 mmHg 94%
    09:00 0°C° 1 mm 4 mps 605 mmHg 95%
    10:00 -1°C° 0.7 mm 4 mps 606 mmHg 92%
    11:00 -1°C° 0.7 mm 4 mps 606 mmHg 90%
    12:00 0°C° 0.7 mm 3 mps 607 mmHg 88%
    13:00 0°C° 0.3 mm 3 mps 607 mmHg 87%
    14:00 -1°C° 0.3 mm 3 mps 607 mmHg 85%
    15:00 -1°C° 0.3 mm 2 mps 607 mmHg 84%
    16:00 -2°C° 0.1 mm 2 mps 608 mmHg 86%
    17:00 -1°C° 0.1 mm 1 mps 608 mmHg 89%
    18:00 -2°C° 0.1 mm 1 mps 609 mmHg 91%
    19:00 -2°C° 0.1 mm 1 mps 609 mmHg 91%
    20:00 -2°C° 0.1 mm 1 mps 610 mmHg 91%
    21:00 -2°C° 0.1 mm 1 mps 611 mmHg 91%
    22:00 -3°C° 0 mm 1 mps 611 mmHg 91%
    23:00 -3°C° 0 mm 1 mps 612 mmHg 90%

    Tomorrow, 12 December, Tuesday

    Time Temperature Precipitation Wind Pressure Humidity
    00:00 -3°C° 0 mm 1 mps 612 mmHg 90%
    01:00 -3°C° 0 mm 1 mps 613 mmHg 90%
    02:00 -4°C° 0 mm 1 mps 613 mmHg 90%
    03:00 -4°C° 0 mm 1 mps 614 mmHg 90%
    04:00 -4°C° 0.1 mm 1 mps 615 mmHg 90%
    05:00 -4°C° 0.1 mm 1 mps 615 mmHg 90%
    06:00 -4°C° 0.1 mm 1 mps 616 mmHg 90%
    07:00 -3°C° 0.1 mm 1 mps 617 mmHg 88%
    08:00 -3°C° 0.1 mm 1 mps 618 mmHg 86%
    09:00 -4°C° 0.1 mm 2 mps 619 mmHg 84%
    10:00 -3°C° 0 mm 2 mps 620 mmHg 78%
    11:00 -2°C° 0 mm 2 mps 621 mmHg 73%
    12:00 -1°C° 0 mm 2 mps 621 mmHg 68%
    13:00 -2°C° 0 mm 2 mps 622 mmHg 68%
    14:00 -2°C° 0 mm 2 mps 622 mmHg 68%
    15:00 -2°C° 0 mm 2 mps 622 mmHg 68%
    16:00 -4°C° 0 mm 2 mps 622 mmHg 71%
    17:00 -6°C° 0 mm 2 mps 622 mmHg 74%
    18:00 -8°C° 0 mm 2 mps 621 mmHg 77%
    19:00 -8°C° 0 mm 2 mps 622 mmHg 71%
    20:00 -9°C° 0 mm 2 mps 622 mmHg 65%
    21:00 -9°C° 0 mm 2 mps 623 mmHg 58%
    22:00 -9°C° 0 mm 2 mps 623 mmHg 56%
    23:00 -9°C° 0 mm 2 mps 623 mmHg 53%

    Day after tomorrow, 13 December, Wednesday

    Time Temperature Precipitation Wind Pressure Humidity
    00:00 -8°C° 0 mm 1 mps 623 mmHg 50%
    01:00 -7°C° 0 mm 1 mps 623 mmHg 50%
    02:00 -7°C° 0 mm 1 mps 623 mmHg 49%
    03:00 -7°C° 0 mm 1 mps 623 mmHg 48%
    04:00 -7°C° 0 mm 1 mps 623 mmHg 49%
    05:00 -7°C° 0 mm 1 mps 623 mmHg 51%
    06:00 -7°C° 0 mm 1 mps 623 mmHg 53%
    07:00 -4°C° 0 mm 1 mps 624 mmHg 53%
    08:00 -3°C° 0 mm 1 mps 625 mmHg 52%
    09:00 -1°C° 0 mm 1 mps 626 mmHg 52%
    10:00 +1°C° 0 mm 1 mps 626 mmHg 54%
    11:00 +2°C° 0 mm 1 mps 626 mmHg 55%
    12:00 +4°C° 0 mm 1 mps 627 mmHg 56%
    13:00 +4°C° 0 mm 1 mps 626 mmHg 59%
    14:00 +3°C° 0 mm 1 mps 626 mmHg 62%
    15:00 +3°C° 0 mm 1 mps 625 mmHg 65%
    16:00 +2°C° 0 mm 1 mps 625 mmHg 68%
    17:00 0°C° 0 mm 1 mps 624 mmHg 71%
    18:00 -1°C° 0 mm 1 mps 623 mmHg 75%
    19:00 0°C° 0.5 mm 1 mps 624 mmHg 76%
    20:00 0°C° 0.5 mm 1 mps 624 mmHg 78%
    21:00 +1°C° 0.5 mm 1 mps 624 mmHg 79%
    22:00 +1°C° 0.3 mm 1 mps 624 mmHg 81%
    23:00 +1°C° 0.3 mm 1 mps 624 mmHg 83%

    14 December, Thursday

    Time Temperature Precipitation Wind Pressure Humidity
    00:00 +1°C° 0.3 mm 1 mps 624 mmHg 84%
    01:00 +2°C° 0.4 mm 1 mps 623 mmHg 85%
    02:00 +2°C° 0.4 mm 1 mps 623 mmHg 87%
    03:00 +2°C° 0.4 mm 1 mps 623 mmHg 88%
    04:00 +2°C° 0.5 mm 1 mps 623 mmHg 89%
    05:00 +2°C° 0.5 mm 1 mps 623 mmHg 90%
    06:00 +3°C° 0.5 mm 1 mps 623 mmHg 91%
    07:00 +3°C° 0.1 mm 1 mps 623 mmHg 90%
    08:00 +4°C° 0.1 mm 1 mps 623 mmHg 89%
    09:00 +4°C° 0.1 mm 1 mps 623 mmHg 87%
    10:00 +5°C° 0.1 mm 1 mps 623 mmHg 85%
    11:00 +6°C° 0.1 mm 1 mps 623 mmHg 83%
    12:00 +6°C° 0.1 mm 1 mps 623 mmHg 82%
    13:00 +6°C° 0.3 mm 1 mps 623 mmHg 83%
    14:00 +6°C° 0.3 mm 1 mps 622 mmHg 85%
    15:00 +6°C° 0.3 mm 1 mps 622 mmHg 87%
    16:00 +5°C° 0.2 mm 1 mps 621 mmHg 89%
    17:00 +4°C° 0.2 mm 1 mps 621 mmHg 91%
    18:00 +3°C° 0.2 mm 1 mps 620 mmHg 93%
    19:00 +3°C° 0.2 mm 1 mps 620 mmHg 93%
    20:00 +3°C° 0.2 mm 1 mps 619 mmHg 93%
    21:00 +3°C° 0.2 mm 1 mps 619 mmHg 93%
    22:00 +3°C° 0.5 mm 1 mps 619 mmHg 94%
    23:00 +2°C° 0.5 mm 2 mps 618 mmHg 95%

    15 December, Friday

    Time Temperature Precipitation Wind Pressure Humidity
    00:00 +2°C° 0.5 mm 2 mps 618 mmHg 96%
    01:00 +2°C° 0.6 mm 2 mps 617 mmHg 96%
    02:00 +2°C° 0.6 mm 2 mps 617 mmHg 96%
    03:00 +2°C° 0.6 mm 2 mps 617 mmHg 96%
    04:00 +1°C° 0.2 mm 2 mps 617 mmHg 96%
    05:00 +2°C° 0.2 mm 1 mps 616 mmHg 95%
    06:00 +1°C° 0.2 mm 1 mps 616 mmHg 95%
    07:00 +2°C° 0 mm 1 mps 616 mmHg 93%
    08:00 +2°C° 0 mm 1 mps 616 mmHg 91%
    09:00 +2°C° 0 mm 1 mps 616 mmHg 89%
    10:00 +2°C° 0.5 mm 2 mps 617 mmHg 88%
    11:00 +2°C° 0.5 mm 2 mps 617 mmHg 86%
    12:00 +1°C° 0.5 mm 3 mps 617 mmHg 85%
    13:00 +1°C° 0.5 mm 3 mps 616 mmHg 83%
    14:00 -1°C° 0.5 mm 4 mps 616 mmHg 81%
    15:00 -1°C° 0.5 mm 4 mps 616 mmHg 79%
    16:00 -3°C° 0.1 mm 4 mps 616 mmHg 80%
    17:00 -4°C° 0.1 mm 3 mps 616 mmHg 82%
    18:00 -5°C° 0.1 mm 3 mps 616 mmHg 83%
    19:00 -6°C° 0.1 mm 3 mps 616 mmHg 83%
    20:00 -6°C° 0.1 mm 3 mps 617 mmHg 83%
    21:00 -6°C° 0.1 mm 3 mps 617 mmHg 82%
    22:00 -7°C° 0 mm 3 mps 617 mmHg 82%
    23:00 -7°C° 0 mm 3 mps 617 mmHg 82%

    16 December, Saturday

    Time Temperature Precipitation Wind Pressure Humidity
    00:00 -8°C° 0 mm 3 mps 618 mmHg 81%
    01:00 -8°C° 0 mm 3 mps 618 mmHg 81%
    02:00 -8°C° 0 mm 3 mps 618 mmHg 80%
    03:00 -8°C° 0 mm 2 mps 618 mmHg 79%
    04:00 -8°C° 0 mm 2 mps 618 mmHg 79%
    05:00 -8°C° 0 mm 2 mps 619 mmHg 78%
    06:00 -8°C° 0 mm 2 mps 619 mmHg 78%
    07:00 -8°C° 0 mm 3 mps 620 mmHg 76%
    08:00 -7°C° 0 mm 3 mps 620 mmHg 73%
    09:00 -6°C° 0 mm 3 mps 621 mmHg 71%
    10:00 -5°C° 0 mm 3 mps 622 mmHg 67%
    11:00 -4°C° 0 mm 3 mps 622 mmHg 63%
    12:00 -1°C° 0 mm 3 mps 623 mmHg 59%
    13:00 -2°C° 0 mm 3 mps 623 mmHg 60%
    14:00 -2°C° 0 mm 3 mps 622 mmHg 61%
    15:00 -2°C° 0 mm 3 mps 622 mmHg 62%
    16:00 -5°C° 0 mm 3 mps 622 mmHg 66%
    17:00 -5°C° 0 mm 2 mps 622 mmHg 70%
    18:00 -7°C° 0 mm 2 mps 622 mmHg 74%
    19:00 -7°C° 0 mm 2 mps 622 mmHg 74%
    20:00 -7°C° 0 mm 2 mps 623 mmHg 73%
    21:00 -7°C° 0 mm 2 mps 623 mmHg 73%
    22:00 -7°C° 0 mm 2 mps 623 mmHg 73%
    23:00 -7°C° 0 mm 2 mps 623 mmHg 73%
    Show more